Temp
64 64 63 64 64 63 62 60 58 58 58 58 58 57 56 54 51 50 49 49 48 47 47 48 48 48 47 48 53 54 53 53 47 51 54 56 54 52 52 53 55 55 56
65 64 63 63 62 61 59 58 57 56 57 56 56 56 56 52 49 48 48 48 47 46 47 47 48 53 52 53 53 51 51 52 49 45 49 51 50 53 50 48 53 57 54
65 63 62 61 60 58 57 56 56 55 54 54 54 54 53 50 49 48 48 47 46 46 46 45 47 52 51 51 49 50 49 48 44 46 46 50 50 50 49 49 49 47 54
63 61 59 58 57 55 55 53 53 53 52 52 51 52 51 49 49 48 47 44 44 45 45 46 50 52 51 50 50 46 45 45 46 46 46 47 48 50 50 47 45 47 46
62 60 57 56 55 53 52 51 51 50 50 50 50 50 49 49 50 44 44 42 42 42 44 46 51 54 56 53 51 49 47 47 46 46 45 46 46 46 45 48 46 47 47
60 57 56 55 53 51 50 48 48 47 46 47 46 47 46 51 47 48 46 41 42 41 41 44 46 53 54 53 52 52 49 45 44 44 44 43 44 45 47 46 44 43 41
57 56 54 53 51 49 48 47 44 43 43 43 44 45 44 43 45 46 47 41 40 40 41 42 44 50 50 48 47 49 49 49 48 46 43 43 43 46 45 43 44 43 43
53 53 53 51 48 47 45 43 42 41 41 41 42 43 48 49 45 44 45 40 40 40 41 41 40 44 48 44 44 45 45 45 45 48 46 46 46 47 46 45 44 44 45
50 50 49 49 45 44 42 41 40 40 41 46 48 48 42 43 43 42 42 39 40 38 41 41 42 44 43 42 43 43 44 45 49 47 46 45 44 43 44 43 41 40 40
49 49 49 48 45 43 41 40 40 44 47 47 42 46 45 38 42 41 41 39 37 37 37 40 43 43 42 41 41 41 41 42 42 43 45 46 46 46 46 44 43 40 40
48 47 45 42 41 40 39 39 38 38 38 37 38 38 39 40 37 41 40 37 36 36 36 37 40 42 41 39 40 42 41 41 42 43 44 44 46 46 46 45 45 43 41
44 43 42 38 41 40 37 37 36 35 34 34 34 35 37 40 42 40 40 39 39 33 35 37 38 40 39 39 41 41 40 41 42 41 41 40 41 42 43 45 46 46 46
38 37 36 38 38 37 36 35 34 34 33 32 33 32 34 37 37 40 39 38 39 37 37 39 40 39 40 42 42 41 41 41 40 39 38 39 40 41 43 44 46 46 46
35 35 35 37 36 36 36 36 34 34 33 34 35 32 34 37 37 37 36 38 40 36 38 35 39 41 41 41 41 42 42 41 39 38 38 39 40 40 40 43 44 44 43
36 37 38 38 38 38 40 37 38 38 39 37 36 37 35 35 37 37 37 37 38 39 39 37 37 37 37 38 39 40 40 40 38 38 37 37 37 38 39 42 43 43 41
37 38 37 38 38 36 34 35 40 40 40 40 40 37 38 39 38 38 38 38 38 38 37 35 35 35 35 36 36 36 38 38 38 37 36 36 36 37 38 40 43 42 41
33 34 33 35 34 34 37 38 35 38 41 41 39 38 38 38 38 38 38 37 37 38 35 34 34 34 35 36 35 36 35 37 37 36 35 35 36 36 37 39 42 42 42
33 40 30 32 33 32 33 37 37 36 35 37 38 38 38 38 38 38 37 37 35 37 36 35 34 35 35 35 35 35 36 36 35 34 34 34 35 35 35 37 39 42 42
33 33 33 33 32 33 31 31 32 34 36 32 32 34 35 36 37 37 37 36 34 33 36 35 36 35 37 36 35 35 34 33 33 33 33 33 33 34 35 37 39 37 40
34 37 36 33 32 32 31 30 30 30 29 29 29 28 30 30 30 31 33 34 36 35 37 36 36 38 38 36 34 33 32 32 31 31 31 33 34 35 35 37 40 45 44
33 35 33 34 33 33 31 30 29 29 28 27 28 30 31 27 28 30 32 34 35 35 38 37 37 39 37 35 33 31 31 30 30 30 31 32 34 34 37 39 43 48 47
34 34 35 34 34 33 30 30 29 28 28 27 27 30 32 29 30 31 33 34 36 37 37 36 35 35 35 33 31 30 29 29 30 30 30 32 34 36 41 43 45 47 47
35 35 34 33 33 32 30 29 28 27 27 27 27 28 30 30 30 31 33 34 35 36 37 35 35 33 33 32 32 30 29 29 29 30 31 32 34 37 40 45 48 47 45
36 35 34 32 32 29 28 27 27 29 28 27 27 27 28 29 30 31 32 34 34 35 35 35 34 32 31 31 31 31 31 31 31 31 32 33 35 37 39 42 47 46 44
35 33 31 30 30 27 27 26 26 26 27 27 27 27 27 29 30 31 32 33 33 33 33 33 33 32 32 31 31 31 31 31 31 32 33 34 35 37 37 41 46 46 44
33 33 30 28 27 27 26 26 25 25 26 27 26 26 27 28 29 30 31 32 32 32 32 32 32 31 32 31 31 31 31 31 31 32 33 34 34 35 36 40 43 46 46
MSLP
1010.45 1010.94 1011.79 1012.75 1013.29 1013.66 1014.71 1015.47 1016.16 1016.29 1016.50 1016.71 1017.35 1017.37 1017.50 1017.63 1017.44 1017.21 1017.42 1017.85 1018.07 1017.65 1016.86 1016.75 1016.19 1015.57 1015.41 1014.83 1014.75 1014.63 1014.45 1014.17 1013.70 1012.93 1012.68 1012.19 1011.71 1011.20 1010.85 1010.46 1009.59 1008.73 1008.19
1010.73 1012.23 1013.35 1013.46 1013.85 1014.52 1015.51 1016.00 1016.47 1017.14 1017.21 1017.47 1017.81 1017.88 1017.92 1017.91 1017.86 1017.72 1018.14 1018.36 1018.22 1017.62 1017.09 1016.56 1016.02 1015.51 1015.34 1014.98 1014.95 1014.86 1014.37 1014.22 1014.12 1013.34 1012.69 1012.04 1011.75 1011.12 1010.62 1010.29 1009.87 1009.25 1008.71
1012.07 1012.82 1013.89 1014.35 1014.89 1015.47 1016.13 1016.72 1017.13 1017.53 1017.69 1017.87 1018.30 1018.05 1018.33 1017.96 1018.23 1018.26 1018.31 1018.42 1018.03 1017.60 1017.37 1016.60 1015.85 1015.57 1015.19 1015.11 1015.04 1015.05 1014.66 1014.43 1014.11 1013.52 1012.57 1012.05 1011.43 1010.97 1010.39 1009.86 1009.50 1009.22 1008.71
1012.86 1013.78 1014.82 1015.33 1015.67 1016.40 1016.60 1017.23 1017.56 1017.99 1018.30 1018.48 1018.13 1018.44 1018.17 1018.14 1018.01 1018.67 1018.66 1018.24 1017.99 1017.73 1017.12 1016.31 1015.52 1015.17 1015.24 1015.21 1014.96 1014.96 1014.61 1014.24 1013.73 1013.10 1012.38 1011.71 1011.25 1010.64 1010.33 1009.88 1009.27 1009.01 1008.57
1013.34 1014.07 1015.09 1015.61 1016.18 1016.73 1017.44 1017.99 1018.23 1018.55 1018.66 1018.55 1018.77 1018.60 1018.21 1018.01 1018.50 1018.80 1018.59 1018.33 1018.14 1017.57 1016.70 1016.21 1015.77 1015.18 1015.17 1015.17 1014.78 1014.53 1014.21 1013.88 1013.26 1012.55 1011.99 1011.37 1010.79 1010.34 1010.11 1009.85 1009.47 1008.89 1008.45
1014.27 1014.98 1015.95 1016.69 1017.22 1017.93 1018.40 1018.79 1018.73 1018.76 1018.99 1018.92 1018.88 1018.45 1018.35 1018.73 1018.81 1018.50 1018.41 1018.42 1017.90 1017.38 1016.67 1016.41 1015.84 1015.24 1015.22 1015.13 1014.75 1014.49 1014.03 1013.64 1012.91 1012.40 1011.75 1011.17 1010.61 1010.26 1009.89 1009.59 1009.36 1009.00 1008.23
1015.33 1015.87 1016.53 1017.25 1017.87 1018.37 1018.88 1018.81 1018.87 1019.10 1019.01 1019.01 1019.27 1019.16 1018.93 1018.67 1018.48 1018.35 1018.47 1018.35 1017.63 1017.13 1016.95 1016.57 1016.16 1015.63 1015.31 1015.26 1014.80 1014.19 1013.37 1012.97 1012.70 1012.23 1011.57 1011.00 1010.46 1010.00 1009.76 1009.31 1008.96 1008.65 1008.19
1016.89 1017.28 1017.63 1017.95 1018.48 1018.69 1018.83 1019.26 1019.51 1019.53 1019.69 1019.63 1019.45 1019.11 1018.40 1018.55 1018.90 1018.78 1018.16 1018.05 1017.61 1017.57 1017.03 1016.75 1016.46 1015.93 1015.44 1015.27 1014.50 1013.73 1013.08 1012.46 1011.96 1011.57 1011.09 1010.43 1009.96 1009.55 1009.31 1009.02 1008.62 1008.17 1007.77
1017.80 1018.36 1018.69 1018.80 1019.19 1019.20 1019.06 1019.56 1019.83 1019.79 1019.43 1019.37 1018.96 1018.91 1018.84 1019.31 1019.09 1018.76 1018.35 1018.07 1017.87 1017.68 1017.28 1016.82 1016.47 1015.95 1015.61 1015.17 1014.59 1013.76 1012.81 1012.09 1011.44 1011.06 1010.44 1009.73 1009.17 1008.87 1008.64 1008.53 1007.94 1007.69 1007.17
1018.67 1018.81 1019.19 1018.99 1019.21 1019.52 1019.70 1019.65 1019.81 1019.72 1019.69 1019.81 1019.89 1019.55 1019.40 1019.50 1019.13 1019.29 1018.70 1018.33 1018.14 1017.67 1017.34 1016.83 1016.43 1015.94 1015.46 1015.11 1014.71 1014.10 1013.07 1012.21 1011.38 1010.18 1009.62 1009.04 1008.61 1008.14 1007.85 1007.71 1007.36 1007.05 1006.91
1019.77 1019.45 1019.90 1019.99 1020.02 1020.23 1020.32 1020.49 1020.62 1020.65 1020.58 1020.81 1020.50 1020.33 1019.90 1019.72 1019.73 1019.33 1018.97 1018.61 1018.35 1017.96 1017.51 1016.94 1016.41 1015.87 1015.39 1014.97 1014.51 1014.05 1013.51 1012.65 1011.44 1010.53 1009.65 1008.79 1008.04 1007.49 1007.15 1006.89 1006.65 1006.53 1006.41
1020.17 1020.73 1020.91 1020.94 1020.81 1020.92 1021.01 1021.24 1021.18 1020.91 1021.09 1021.17 1021.02 1020.71 1020.51 1020.20 1019.89 1019.57 1019.23 1018.74 1018.39 1018.14 1017.49 1016.96 1016.38 1015.83 1015.33 1014.69 1014.22 1013.76 1013.04 1012.28 1011.31 1010.45 1009.58 1008.77 1008.05 1007.43 1006.89 1006.43 1006.00 1005.79 1005.71
1021.17 1021.65 1021.49 1021.35 1021.28 1021.31 1021.37 1021.50 1021.41 1021.19 1021.43 1021.64 1021.55 1021.43 1021.09 1020.73 1020.26 1019.79 1019.09 1018.51 1018.12 1017.80 1017.49 1016.91 1016.37 1015.71 1015.25 1014.54 1014.01 1013.47 1012.66 1011.96 1011.19 1010.31 1009.51 1008.74 1008.14 1007.37 1006.57 1005.90 1005.35 1005.21 1005.11
1022.03 1022.03 1021.81 1021.86 1021.79 1021.47 1021.48 1021.68 1021.77 1021.68 1021.93 1022.02 1021.98 1021.87 1021.51 1020.96 1020.41 1020.04 1019.49 1018.77 1018.07 1017.61 1017.18 1016.73 1016.29 1015.83 1015.34 1014.68 1013.87 1013.29 1012.58 1012.05 1011.37 1010.49 1009.61 1008.85 1008.04 1007.23 1006.43 1005.73 1005.11 1004.90 1004.79
1022.21 1022.25 1022.34 1022.21 1022.12 1021.98 1021.95 1021.99 1021.90 1022.13 1022.19 1022.27 1022.19 1021.95 1021.73 1021.31 1020.92 1020.56 1020.08 1019.39 1018.59 1017.90 1017.31 1016.86 1016.51 1015.92 1015.37 1014.53 1013.89 1013.16 1012.61 1011.96 1011.25 1010.57 1009.80 1008.94 1008.01 1007.19 1006.32 1005.56 1004.96 1004.74 1004.61
1022.81 1022.95 1022.97 1022.89 1022.81 1022.78 1022.75 1022.61 1022.39 1022.44 1022.53 1022.46 1022.26 1022.16 1021.93 1021.67 1021.23 1020.72 1020.17 1019.63 1018.97 1018.28 1017.68 1017.42 1017.02 1016.44 1015.77 1015.00 1014.37 1013.54 1012.90 1012.11 1011.37 1010.61 1009.86 1009.14 1008.19 1007.28 1006.39 1005.52 1004.76 1004.57 1004.44
1023.24 1023.30 1023.34 1023.22 1023.30 1023.31 1023.25 1023.24 1023.31 1023.01 1022.67 1022.55 1022.33 1022.12 1021.91 1021.67 1021.40 1021.06 1020.58 1019.90 1019.24 1018.59 1018.29 1017.91 1017.47 1016.87 1016.21 1015.61 1014.83 1014.13 1013.17 1012.33 1011.68 1010.93 1009.99 1009.16 1008.28 1007.38 1006.50 1005.46 1004.60 1004.21 1004.10
1023.19 1023.22 1023.78 1023.74 1023.83 1023.94 1023.91 1023.94 1023.71 1023.42 1023.31 1022.99 1022.64 1022.44 1022.21 1021.98 1021.59 1021.23 1020.67 1019.99 1019.51 1018.86 1018.76 1018.27 1017.81 1017.22 1016.64 1015.89 1015.18 1014.40 1013.43 1012.64 1011.84 1010.98 1010.07 1009.27 1008.31 1007.45 1006.35 1005.45 1004.64 1003.80 1003.67
1023.65 1023.84 1023.89 1023.96 1024.11 1024.03 1024.11 1024.14 1024.05 1023.95 1023.83 1023.78 1023.57 1023.16 1022.76 1022.39 1022.01 1021.45 1020.89 1020.47 1019.97 1019.41 1019.04 1018.55 1018.06 1017.49 1016.81 1016.23 1015.70 1014.85 1014.08 1013.17 1012.23 1011.17 1010.16 1009.27 1008.33 1007.39 1006.22 1005.24 1004.30 1003.67 1003.19
1023.65 1023.70 1023.73 1023.94 1024.05 1024.34 1024.61 1024.79 1024.83 1024.85 1024.83 1024.73 1024.45 1024.09 1023.44 1022.97 1022.49 1022.08 1021.46 1021.01 1020.36 1019.81 1019.18 1018.88 1018.30 1017.62 1017.20 1016.86 1016.19 1015.32 1014.28 1013.33 1012.24 1011.33 1010.39 1009.43 1008.37 1007.34 1006.23 1005.05 1003.83 1002.64 1002.56
1023.76 1023.59 1023.66 1023.91 1024.21 1024.70 1025.14 1025.28 1025.42 1025.58 1025.57 1025.37 1025.13 1024.58 1024.08 1023.69 1023.32 1022.80 1022.21 1021.49 1020.90 1020.24 1019.58 1019.22 1018.75 1018.11 1018.00 1017.45 1016.71 1015.81 1014.88 1013.86 1012.87 1011.83 1010.65 1009.53 1008.41 1007.21 1006.13 1005.06 1003.95 1003.17 1002.95
1023.83 1024.00 1024.12 1024.51 1024.83 1025.28 1025.62 1025.66 1025.93 1026.05 1025.85 1025.73 1025.65 1025.09 1024.59 1024.13 1023.66 1023.19 1022.67 1022.04 1021.47 1020.82 1020.25 1019.96 1019.54 1019.14 1018.67 1018.09 1017.33 1016.42 1015.39 1014.29 1013.14 1012.07 1010.97 1009.80 1008.56 1007.24 1006.00 1004.89 1004.03 1003.50 1003.35
1024.20 1024.48 1024.80 1025.19 1025.54 1025.84 1026.12 1026.31 1026.41 1026.45 1026.32 1026.18 1026.06 1025.61 1025.16 1024.77 1024.20 1023.76 1023.24 1022.61 1022.03 1021.41 1020.83 1020.55 1020.23 1019.85 1019.35 1018.76 1017.98 1017.17 1016.11 1015.03 1013.99 1012.78 1011.45 1010.08 1008.89 1007.55 1006.36 1005.09 1004.24 1003.93 1003.84
1024.74 1025.06 1025.41 1025.89 1026.25 1026.52 1026.79 1026.89 1026.82 1026.63 1026.67 1026.64 1026.43 1026.08 1025.73 1025.27 1024.79 1024.40 1023.82 1023.11 1022.59 1022.09 1021.59 1021.13 1020.83 1020.45 1019.82 1019.16 1018.37 1017.54 1016.67 1015.61 1014.32 1013.03 1011.79 1010.51 1009.25 1007.96 1006.81 1005.81 1004.84 1004.56 1004.42
1025.38 1025.77 1026.12 1026.47 1026.83 1027.11 1027.25 1027.35 1027.37 1027.12 1027.05 1027.01 1026.88 1026.58 1026.22 1025.74 1025.31 1024.97 1024.41 1023.73 1023.18 1022.74 1022.22 1021.75 1021.34 1020.83 1020.15 1019.52 1018.76 1017.88 1016.89 1015.69 1014.51 1013.35 1011.95 1010.89 1009.81 1008.65 1007.62 1006.41 1005.51 1005.20 1004.97
1026.19 1026.56 1026.81 1026.97 1027.25 1027.40 1027.55 1027.78 1027.79 1027.72 1027.70 1027.37 1027.25 1027.05 1026.71 1026.27 1025.96 1025.61 1025.02 1024.31 1023.75 1023.29 1022.75 1022.27 1021.81 1021.26 1020.45 1019.82 1019.13 1018.26 1017.20 1016.08 1014.87 1013.65 1012.41 1011.31 1010.35 1009.37 1008.45 1007.43 1006.49 1005.75 1005.50
Wind_Speed
12 12 12 11 11 11 10 8 7 7 7 8 6 6 6 6 6 7 6 5 5 5 5 4 6 5 4 4 4 4 5 6 8 8 8 11 14 12 9 9 11 10 10
14 13 11 12 12 12 10 9 8 7 7 7 6 6 5 6 6 7 5 4 5 6 6 6 6 5 5 5 4 6 4 6 7 11 10 9 8 9 7 8 6 9 10
14 14 12 10 11 10 9 8 8 7 7 6 4 5 4 6 5 5 4 4 5 5 6 6 6 4 5 4 3 5 5 5 4 6 9 7 8 6 8 6 6 5 7
14 13 11 10 10 9 9 8 8 6 6 5 6 4 5 4 5 4 4 5 6 6 6 6 6 3 5 4 5 4 5 5 6 7 8 8 7 7 7 7 8 5 5
13 13 11 11 10 10 9 7 7 7 6 6 5 4 4 4 3 2 4 5 6 6 6 7 7 9 11 9 5 5 5 7 8 9 9 8 8 7 7 6 7 8 8
15 14 12 11 11 9 8 8 8 7 6 6 6 6 6 2 1 5 6 4 6 6 6 6 6 9 9 12 11 11 11 9 12 9 9 9 11 8 8 6 6 7 6
13 13 11 11 11 10 7 7 7 6 6 7 6 5 3 1 2 7 9 4 5 6 6 6 7 8 9 7 11 16 15 14 13 12 12 11 12 10 9 10 8 7 7
11 11 10 10 9 8 8 7 6 4 3 1 3 4 3 2 7 10 10 5 6 6 6 7 6 8 7 11 12 12 12 10 9 8 10 12 12 11 10 9 10 9 7
11 10 9 10 8 6 7 5 2 2 3 3 3 5 6 6 12 15 9 5 5 6 7 7 7 8 10 15 12 12 13 12 12 17 18 18 18 18 16 8 7 6 5
10 10 9 8 7 7 5 5 3 3 5 6 6 7 12 7 12 12 12 5 7 7 7 7 11 9 16 15 10 11 12 15 16 16 12 10 10 10 14 9 7 6 5
8 9 8 7 7 6 6 6 6 6 6 7 7 6 7 6 6 14 16 6 6 7 6 7 7 13 18 17 14 8 11 15 16 11 11 9 9 7 6 6 7 6 5
9 8 8 6 6 6 7 6 6 6 6 6 7 6 5 8 12 14 18 15 14 5 7 7 8 18 19 17 11 14 16 15 8 9 9 9 9 9 9 8 7 7 7
8 6 6 6 6 5 6 5 5 6 5 4 5 5 6 6 5 16 19 20 16 8 5 10 18 16 15 9 12 16 14 8 9 10 10 9 9 9 10 9 6 6 7
6 6 5 6 6 6 4 4 4 4 4 4 5 5 5 6 7 9 9 9 13 6 7 7 10 11 10 10 10 9 8 8 10 9 10 10 9 9 8 7 5 3 3
6 5 5 4 5 5 6 4 4 4 4 3 3 5 5 6 7 12 13 9 8 7 6 4 7 8 8 8 8 10 10 9 9 9 9 10 9 8 8 7 4 2 3
5 4 4 4 4 4 4 4 10 8 8 8 6 5 5 7 12 13 15 15 15 16 6 7 7 8 9 9 10 11 10 13 10 10 9 9 9 9 9 8 4 3 3
5 4 3 5 4 4 4 5 4 4 5 6 8 11 10 10 12 13 12 13 11 10 8 7 7 8 9 9 10 10 11 10 12 10 10 9 9 9 9 8 6 3 3
5 5 3 3 3 4 4 3 3 3 3 4 7 11 12 13 12 13 14 9 7 8 7 7 8 8 9 9 11 11 11 11 11 10 10 9 9 8 10 8 7 6 3
4 3 2 1 2 4 3 3 3 3 3 3 4 7 8 12 11 11 13 7 7 7 6 7 7 7 8 10 11 10 11 10 11 11 10 10 10 9 10 8 8 8 5
4 5 4 2 3 4 3 3 4 5 5 4 4 4 5 6 7 8 8 8 8 8 6 7 8 7 9 11 11 10 11 11 11 11 11 10 10 9 9 10 9 8 3
3 3 5 4 5 5 4 4 4 4 4 4 4 5 8 4 5 6 8 9 9 8 9 7 9 9 9 10 10 11 11 11 11 12 11 11 11 11 9 8 8 5 3
4 4 5 5 5 5 4 4 4 4 4 4 4 5 9 5 6 7 8 9 9 8 7 9 8 9 8 11 10 11 12 13 13 13 13 12 11 11 10 7 6 3 3
5 5 5 5 5 5 5 4 4 4 4 5 4 5 6 7 7 8 8 8 9 9 8 8 9 9 8 10 10 10 12 13 14 13 13 12 12 11 11 8 4 3 3
6 6 6 5 5 5 5 4 4 5 5 5 4 5 6 6 7 9 9 8 9 9 9 8 10 14 10 12 11 12 11 13 12 13 16 12 11 13 10 10 5 5 4
6 6 5 5 5 4 5 5 4 5 4 4 5 5 6 6 7 9 8 9 9 8 10 10 10 14 14 19 18 20 20 22 18 19 11 12 14 15 12 9 9 4 5
6 6 5 5 5 4 4 4 4 4 4 4 5 5 5 6 7 8 8 9 10 9 11 9 12 17 17 14 18 21 21 22 21 22 14 12 12 12 12 13 15 5 4
Wind_Direction
105 103 104 109 103 94 91 90 79 70 59 56 56 57 45 35 38 54 55 34 13 334 342 347 326 323 316 327 351 333 324 332 316 318 315 325 327 325 334 332 322 330 338
107 109 104 100 95 90 91 84 77 73 59 63 50 43 35 69 56 60 39 10 355 339 332 337 324 329 7 348 338 319 335 331 336 322 319 319 310 318 313 320 332 334 332
107 101 97 92 90 88 87 81 70 75 69 53 51 41 61 77 66 53 45 5 347 332 318 318 313 352 348 324 323 329 334 325 295 293 302 305 303 304 309 300 307 295 311
107 103 100 94 88 81 74 70 69 64 56 40 34 39 106 97 65 34 19 1 340 326 310 316 311 324 317 318 321 318 296 298 295 300 295 298 297 303 297 311 319 313 315
115 105 104 99 89 85 81 72 64 47 36 37 50 35 53 69 53 23 22 348 318 329 328 327 322 330 353 331 321 302 298 304 309 307 300 301 302 307 300 301 295 308 308
97 98 91 82 85 80 75 75 68 56 39 34 19 18 29 48 61 38 21 339 332 339 339 326 333 326 340 339 328 324 306 309 306 300 296 295 297 297 298 292 290 295 305
77 82 89 89 85 80 76 64 55 42 36 31 16 9 344 195 55 31 4 342 349 344 352 349 340 337 338 353 327 315 310 304 289 294 291 288 291 293 297 289 281 275 276
76 78 73 86 86 85 73 62 46 33 31 4 337 329 356 45 30 17 0 349 356 355 348 332 321 319 351 350 334 325 318 313 303 296 285 280 276 280 277 281 283 280 276
76 73 79 86 81 77 71 59 41 35 1 347 351 6 14 57 40 28 9 354 351 334 329 320 323 322 346 351 339 326 320 318 320 309 296 285 275 270 268 278 269 261 275
70 71 70 72 68 57 47 34 13 11 22 13 9 38 63 70 43 32 18 348 339 335 324 317 321 326 342 339 334 324 320 325 322 320 315 301 283 275 270 261 261 254 258
73 65 57 44 54 41 39 37 48 44 38 32 30 10 30 42 13 15 6 357 340 330 320 320 318 328 330 325 326 309 319 310 312 314 311 313 314 290 278 263 245 240 239
73 66 65 52 56 63 78 52 47 52 47 31 20 8 356 2 359 354 345 336 328 311 308 308 309 320 318 313 320 313 307 312 316 314 314 320 320 320 312 301 262 240 230
64 58 60 51 46 52 72 63 48 49 51 32 31 8 357 344 339 346 345 335 329 319 294 310 315 313 308 320 322 316 322 326 324 324 324 319 314 306 302 303 278 248 252
67 59 49 48 36 36 56 72 66 52 49 36 25 10 348 353 355 354 346 337 344 339 331 314 315 321 329 322 333 331 334 328 329 323 322 318 315 316 309 303 292 262 248
65 51 43 35 36 44 54 45 71 62 70 55 16 7 359 357 347 341 351 350 347 342 331 346 354 350 343 344 341 344 336 331 334 332 326 323 320 318 313 313 286 264 248
77 59 52 48 49 52 51 26 35 95 65 41 6 14 348 345 348 344 349 348 359 355 10 3 351 348 345 345 343 336 331 332 335 330 325 322 319 321 317 312 273 250 256
99 95 73 71 73 60 43 43 41 15 31 13 6 5 2 353 343 339 338 342 349 1 16 0 354 350 348 341 339 329 325 330 330 327 323 321 317 314 313 311 296 241 235
36 23 62 41 80 75 65 68 51 37 2 357 353 360 350 351 352 351 344 338 352 15 6 357 349 345 341 343 340 330 329 329 330 328 325 322 317 312 313 310 307 273 225
18 8 8 94 125 111 80 58 43 36 13 22 355 351 351 349 349 353 352 2 346 344 345 347 340 333 344 348 337 330 330 328 325 327 328 325 321 316 312 304 292 278 220
320 270 223 138 133 97 58 44 37 37 35 19 5 346 341 359 5 356 358 355 353 349 344 343 338 342 359 346 337 334 333 334 335 335 331 325 320 314 310 313 313 317 147
327 44 107 84 84 98 92 69 67 60 45 24 359 349 5 18 351 357 354 356 354 349 3 351 357 359 355 344 341 340 337 335 336 333 330 328 325 321 315 310 311 4 51
109 100 90 85 88 77 69 65 68 66 47 37 352 345 359 9 3 3 360 358 355 355 2 4 5 347 355 347 345 343 340 340 339 336 332 327 324 320 320 315 316 14 37
95 79 79 72 89 83 64 59 61 52 43 29 6 9 10 8 5 2 358 354 356 357 2 10 360 347 359 351 350 347 344 342 334 329 328 326 328 329 327 326 337 14 26
82 78 86 84 85 78 72 62 50 48 45 27 9 11 10 2 6 359 355 360 359 1 2 4 359 349 358 356 353 351 346 341 336 334 332 329 333 335 334 333 352 26 39
83 77 78 92 94 88 81 60 52 46 37 28 19 14 0 4 10 4 355 2 1 2 2 360 358 349 1 360 356 353 349 347 347 342 338 340 343 345 344 341 350 28 44
80 78 74 84 83 80 81 74 59 41 28 27 20 5 3 8 7 3 356 4 2 0 359 358 356 354 2 358 355 354 352 353 353 350 351 352 354 356 352 354 355 2 24